This is the latest recevied weather packets stored in our database for station/object KC7YCE. If no packets are shown the sender has not sent any weather packets the latest 10 day(s).
| Time | Temp. | Humidity | Pressure | Rain* | Wind** | Luminosity | Snow |
|---|---|---|---|---|---|---|---|
| 1777827971 | 14.44° C | 18% | 1022.4 hPa | 0 mm | - | - | - |
| 1777827371 | 13.89° C | 20% | 1022.4 hPa | 0 mm | - | - | - |
| 1777826170 | 13.33° C | 20% | 1022.6 hPa | 0 mm | - | - | - |
| 1777825570 | 13.33° C | 19% | 1022.7 hPa | 0 mm | - | - | - |
| 1777824370 | 12.22° C | 21% | 1022.9 hPa | 0 mm | - | - | - |
| 1777823770 | 12.22° C | 23% | 1023 hPa | 0 mm | - | - | - |
| 1777822570 | 11.67° C | 27% | 1023.2 hPa | 0 mm | - | - | - |
| 1777821970 | 11.11° C | 27% | 1023.4 hPa | 0 mm | - | - | - |
| 1777821340 | 11.11° C | 32% | 1023.4 hPa | 0 mm | - | - | - |
| 1777820741 | 9.44° C | 38% | 1023.4 hPa | 0 mm | - | - | - |
| 1777820140 | 8.33° C | 37% | 1023.4 hPa | 0 mm | - | - | - |
| 1777819540 | 7.22° C | 38% | 1023.6 hPa | 0 mm | - | - | - |
| 1777818310 | 5.56° C | 43% | 1023.5 hPa | 0 mm | - | - | - |
| 1777817709 | 5.56° C | 44% | 1023.6 hPa | 0 mm | - | - | - |
| 1777817109 | 4.44° C | 46% | 1023.6 hPa | 0 mm | - | - | - |
| 1777816509 | 3.33° C | 49% | 1023.5 hPa | 0 mm | - | - | - |
| 1777815909 | 2.22° C | 51% | 1023.6 hPa | 0 mm | - | - | - |
| 1777815309 | 1.67° C | 54% | 1023.6 hPa | 0 mm | - | - | - |
| 1777814709 | 1.11° C | 56% | 1023.5 hPa | 0 mm | - | - | - |
| 1777814109 | 0° C | 59% | 1023.5 hPa | 0 mm | - | - | - |
| 1777813509 | -0.56° C | 61% | 1023.4 hPa | 0 mm | - | - | - |
| 1777812909 | -1.11° C | 64% | 1023.4 hPa | 0 mm | - | - | - |
| 1777812309 | -1.67° C | 67% | 1023.3 hPa | 0 mm | - | - | - |
| 1777811709 | -2.22° C | 69% | 1023.3 hPa | 0 mm | - | - | - |
| 1777811109 | -2.78° C | 70% | 1023.2 hPa | 0 mm | - | - | - |
* Rain latest hour (hover to see other rain measurements)
** Current wind speed in m/s (hover to see current wind gust speed)